GW0058 Weather Reports


Display with metric or nautical units.
time (UTC)temp
F
wind
direction
speed
MPH
gust
MPH
rain 1hr
in
rain 24hr
in
rain mn
in
humidity
%
barometer
mb
20260902090553 75 0 0.0 0.0 0.00 0.00 0.00 81 1016.4
20260902085547 75 0 0.0 0.0 0.00 0.00 0.00 81 1016.4
20260902085047 75 0 0.0 0.0 0.00 0.00 0.00 81 1016.3
20260902084554 75 0 0.0 1.0 0.00 0.00 0.00 81 1016.3
20260902084047 76 0 0.0 1.0 0.00 0.00 0.00 81 1016.3
20260902083546 76 0 0.0 1.0 0.00 0.00 0.00 81 1016.4
20260902083059 76 0 0.0 1.0 0.00 0.00 0.00 80 1016.4
20260902082547 76 0 0.0 1.0 0.00 0.00 0.00 80 1016.4
20260902082047 76 148 0.0 1.0 0.00 0.00 0.00 80 1016.4
20260902081555 76 0 0.0 0.0 0.00 0.00 0.00 79 1016.5
20260902081049 76 0 0.0 0.0 0.00 0.00 0.00 79 1016.6
20260902080547 76 0 0.0 0.0 0.00 0.00 0.00 79 1016.6
20260902080105 76 0 0.0 0.0 0.00 0.00 0.00 79 1016.7
20260902075548 76 0 0.0 0.0 0.00 0.00 0.00 78 1016.5
20260902075046 76 0 0.0 0.0 0.00 0.00 0.00 77 1016.5
20260902074613 77 0 0.0 0.0 0.00 0.00 0.00 77 1016.5
20260902074046 77 0 0.0 0.0 0.00 0.00 0.00 77 1016.5
20260902073550 77 0 0.0 0.0 0.00 0.00 0.00 77 1016.4
20260902073106 77 0 0.0 0.0 0.00 0.00 0.00 77 1016.4
20260902072547 77 0 0.0 0.0 0.00 0.00 0.00 77 1016.5
20260902072050 77 0 0.0 0.0 0.00 0.00 0.00 76 1016.5
20260902071604 77 0 0.0 0.0 0.00 0.00 0.00 76 1016.4
20260902071050 77 0 0.0 0.0 0.00 0.00 0.00 76 1016.5
20260902070546 78 0 0.0 0.0 0.00 0.00 0.00 76 1016.6
20260902070059 78 0 0.0 0.0 0.00 0.00 0.00 76 1016.5
20260902065546 78 0 0.0 1.0 0.00 0.00 0.00 76 1016.5
20260902065053 78 0 0.0 1.0 0.00 0.00 0.00 76 1016.6
20260902064601 78 0 0.0 1.0 0.00 0.00 0.00 76 1016.6
20260902064052 78 0 0.0 0.0 0.00 0.00 0.00 75 1016.5
20260902063550 79 0 0.0 0.0 0.00 0.00 0.00 74 1016.6
20260902063103 79 0 0.0 0.0 0.00 0.00 0.00 74 1016.5
20260902062548 79 0 0.0 0.0 0.00 0.00 0.00 74 1016.6
20260902062048 79 0 0.0 0.0 0.00 0.00 0.00 74 1016.7
20260902061603 79 0 0.0 0.0 0.00 0.00 0.00 73 1016.6
20260902061050 80 0 0.0 0.0 0.00 0.00 0.00 73 1016.6
20260902060546 80 0 0.0 0.0 0.00 0.00 0.00 73 1016.6
20260902060114 80 0 0.0 0.0 0.00 0.00 0.00 72 1016.7
20260902055549 80 0 0.0 0.0 0.00 0.00 0.00 72 1016.7
20260902055049 80 0 0.0 1.0 0.00 0.00 0.00 71 1016.6
20260902054601 80 0 0.0 1.0 0.00 0.00 0.00 71 1016.6
20260902054048 81 0 0.0 1.0 0.00 0.00 0.00 71 1016.6
20260902053551 81 0 0.0 1.0 0.00 0.00 0.00 71 1016.7
20260902053106 81 148 0.0 1.0 0.00 0.00 0.00 71 1016.6
20260902052549 81 0 0.0 1.0 0.00 0.00 0.00 70 1016.5
20260902052050 81 0 0.0 1.0 0.00 0.00 0.00 70 1016.5
20260902051556 81 0 0.0 1.0 0.00 0.00 0.00 70 1016.4
20260902051047 82 0 0.0 2.0 0.00 0.00 0.00 69 1016.5
20260902050547 82 0 0.0 2.0 0.00 0.00 0.00 69 1016.5
20260902045546 82 0 0.0 3.0 0.00 0.00 0.00 69 1016.6
20260902045049 82 157 1.0 3.0 0.00 0.00 0.00 68 1016.5
20260902044601 82 0 0.0 3.0 0.00 0.00 0.00 68 1016.6
20260902044049 83 0 1.0 3.0 0.00 0.00 0.00 68 1016.4
20260902043549 83 165 1.0 5.0 0.00 0.00 0.00 67 1016.5
20260902043058 83 151 0.0 5.0 0.00 0.00 0.00 67 1016.4
20260902042553 83 94 2.0 4.0 0.00 0.00 0.00 67 1016.4
20260902042049 83 140 0.0 4.0 0.00 0.00 0.00 66 1016.4
20260902041600 83 0 1.0 4.0 0.00 0.00 0.00 66 1016.4
20260902041049 83 204 1.0 4.0 0.00 0.00 0.00 66 1016.4
20260902040549 84 136 1.0 3.0 0.00 0.00 0.00 65 1016.3
20260902040105 84 0 0.0 3.0 0.00 0.00 0.00 65 1016.4
20260902035550 84 0 0.0 4.0 0.00 0.00 0.00 64 1016.3
20260902035047 84 165 1.0 5.0 0.00 0.00 0.00 64 1016.3
20260902034605 84 119 0.0 7.0 0.00 0.00 0.00 63 1016.2
20260902034046 84 120 1.0 7.0 0.00 0.00 0.00 63 1016.1
20260902033549 84 140 2.0 7.0 0.00 0.00 0.00 63 1016.1
20260902033104 84 128 1.0 6.0 0.00 0.00 0.00 63 1015.9
20260902032549 84 155 1.0 6.0 0.00 0.00 0.00 63 1015.9
20260902032049 84 0 1.0 4.0 0.00 0.00 0.00 62 1015.8
20260902031554 84 152 1.0 4.0 0.00 0.00 0.00 62 1015.7
20260902031053 85 142 1.0 4.0 0.00 0.00 0.00 62 1015.6
20260902030547 85 115 0.0 2.0 0.00 0.00 0.00 61 1015.5
20260902025546 85 0 0.0 0.0 0.00 0.00 0.00 60 1015.3
20260902025046 85 0 0.0 1.0 0.00 0.00 0.00 60 1015.3
20260902024556 85 0 0.0 1.0 0.00 0.00 0.00 60 1015.1
20260902024046 85 0 0.0 0.0 0.00 0.00 0.00 59 1015.0
20260902023549 86 0 0.0 2.0 0.00 0.00 0.00 59 1014.8
20260902023058 86 0 0.0 2.0 0.00 0.00 0.00 59 1014.7
20260902022547 86 127 0.0 1.0 0.00 0.00 0.00 59 1014.7
20260902022050 86 0 0.0 2.0 0.00 0.00 0.00 59 1014.6
20260902021553 86 0 0.0 2.0 0.00 0.00 0.00 59 1014.6
20260902021046 86 0 0.0 3.0 0.00 0.00 0.00 59 1014.5
20260902020546 86 0 0.0 3.0 0.00 0.00 0.00 58 1014.5
20260902020104 86 0 0.0 3.0 0.00 0.00 0.00 58 1014.5
20260902015546 86 0 0.0 3.0 0.00 0.00 0.00 57 1014.4
20260902015046 87 0 1.0 4.0 0.00 0.00 0.00 57 1014.4
20260902014557 87 0 0.0 4.0 0.00 0.00 0.00 57 1014.3
20260902014048 87 55 1.0 6.0 0.00 0.00 0.00 57 1014.4
20260902013546 86 111 1.0 6.0 0.00 0.00 0.00 58 1014.3
20260902013059 86 0 0.0 0.0 0.00 0.00 0.00 58 1014.3
20260902012547 86 0 0.0 0.0 0.00 0.00 0.00 57 1014.2
20260902012049 86 0 0.0 0.0 0.00 0.00 0.00 56 1014.1
20260902011557 87 0 0.0 1.0 0.00 0.00 0.00 56 1014.1
20260902011047 87 0 0.0 1.0 0.00 0.00 0.00 55 1014.0
20260902010547 88 0 0.0 2.0 0.00 0.00 0.00 54 1014.0
20260902010105 88 0 0.0 2.0 0.00 0.00 0.00 53 1014.0
20260902005546 89 0 0.0 2.0 0.00 0.00 0.00 53 1014.0
20260902005047 89 0 0.0 3.0 0.00 0.00 0.00 52 1013.9
20260902004607 89 0 0.0 3.0 0.00 0.00 0.00 52 1013.9
20260902004054 90 0 0.0 3.0 0.00 0.00 0.00 51 1014.0
20260902003546 90 0 0.0 4.0 0.00 0.00 0.00 51 1014.0
20260902003102 90 0 1.0 5.0 0.00 0.00 0.00 50 1014.0
20260902002545 90 65 0.0 7.0 0.00 0.00 0.00 50 1014.1
20260902002045 91 117 1.0 7.0 0.00 0.00 0.00 49 1014.1
20260902001607 91 113 2.0 6.0 0.00 0.00 0.00 49 1014.1
20260902001046 91 241 1.0 9.0 0.00 0.00 0.00 49 1014.1
20260902000546 92 94 2.0 9.0 0.00 0.00 0.00 48 1014.1
20260902000105 92 68 2.0 10.0 0.00 0.00 0.00 48 1014.1
20260901235547 92 146 4.0 10.0 0.00 0.00 0.00 47 1014.1
20260901235046 93 78 3.0 10.0 0.00 0.00 0.00 46 1014.1
20260901234613 94 118 3.0 10.0 0.00 0.00 0.00 46 1014.0
20260901234049 95 182 1.0 8.0 0.00 0.00 0.00 42 1014.1
20260901233548 95 123 3.0 8.0 0.00 0.00 0.00 40 1013.9
20260901233103 96 145 3.0 8.0 0.00 0.00 0.00 40 1013.9
20260901232548 96 182 4.0 8.0 0.00 0.00 0.00 39 1013.9
20260901232048 96 144 3.0 6.0 0.00 0.00 0.00 40 1013.9
20260901231605 96 188 0.0 8.0 0.00 0.00 0.00 40 1013.9
20260901231049 96 130 2.0 8.0 0.00 0.00 0.00 39 1013.9
20260901230546 97 164 3.0 7.0 0.00 0.00 0.00 39 1013.9
20260901230108 96 221 3.0 10.0 0.00 0.00 0.00 39 1014.0
20260901225549 96 176 4.0 10.0 0.00 0.00 0.00 39 1013.9
20260901225046 96 169 3.0 7.0 0.00 0.00 0.00 38 1013.8
20260901224630 98 141 2.0 4.0 0.00 0.00 0.00 38 1013.9
20260901224051 98 0 1.0 7.0 0.00 0.00 0.00 37 1013.9
20260901223550 97 0 1.0 7.0 0.00 0.00 0.00 38 1013.9
20260901223104 98 155 1.0 6.0 0.00 0.00 0.00 38 1013.9
20260901222550 98 101 2.0 6.0 0.00 0.00 0.00 37 1013.9
20260901222051 99 99 0.0 5.0 0.00 0.00 0.00 38 1014.0
20260901221608 97 152 1.0 9.0 0.00 0.00 0.00 39 1014.0
20260901221047 96 292 1.0 9.0 0.00 0.00 0.00 40 1013.9
20260901220551 97 36 3.0 9.0 0.00 0.00 0.00 38 1013.9
20260901220119 97 167 1.0 11.0 0.00 0.00 0.00 39 1014.0
20260901215549 98 170 3.0 11.0 0.00 0.00 0.00 38 1014.0
20260901215050 98 0 3.0 9.0 0.00 0.00 0.00 39 1013.9
20260901214600 96 169 2.0 8.0 0.00 0.00 0.00 40 1014.0
20260901214049 97 310 2.0 6.0 0.00 0.00 0.00 39 1014.0
20260901213549 99 155 1.0 7.0 0.00 0.00 0.00 39 1014.1
20260901213058 99 161 1.0 7.0 0.00 0.00 0.00 38 1014.1
20260901212549 98 104 2.0 11.0 0.00 0.00 0.00 40 1014.2
20260901212050 95 117 3.0 11.0 0.00 0.00 0.00 42 1014.3
20260901211604 96 92 2.0 8.0 0.00 0.00 0.00 42 1014.3
20260901211047 97 180 3.0 7.0 0.00 0.00 0.00 41 1014.4
20260901210547 96 196 3.0 9.0 0.00 0.00 0.00 42 1014.5
20260901210107 97 148 5.0 9.0 0.00 0.00 0.00 41 1014.6
20260901205547 96 171 2.0 7.0 0.00 0.00 0.00 44 1014.6
20260901205049 95 132 2.0 13.0 0.00 0.00 0.00 43 1014.6
20260901204558 96 130 6.0 13.0 0.00 0.00 0.00 42 1014.7
20260901204051 97 157 5.0 11.0 0.00 0.00 0.00 42 1014.9
20260901203553 97 156 4.0 10.0 0.00 0.00 0.00 42 1014.8
20260901203054 96 253 1.0 10.0 0.00 0.00 0.00 42 1014.9
20260901202552 97 134 6.0 13.0 0.00 0.00 0.00 42 1015.0
20260901202049 96 171 4.0 13.0 0.00 0.00 0.00 44 1015.1
20260901201602 95 105 3.0 13.0 0.00 0.00 0.00 44 1015.2
20260901201049 96 203 2.0 6.0 0.00 0.00 0.00 44 1015.4
20260901200549 93 117 2.0 7.0 0.00 0.00 0.00 47 1015.5
20260901200057 94 169 2.0 10.0 0.00 0.00 0.00 46 1015.6
20260901195546 95 109 1.0 10.0 0.00 0.00 0.00 43 1015.6
20260901195049 97 157 5.0 11.0 0.00 0.00 0.00 42 1015.7
20260901194603 96 86 3.0 12.0 0.00 0.00 0.00 44 1015.8
20260901194051 96 36 5.0 12.0 0.00 0.00 0.00 45 1015.8
20260901193550 95 170 3.0 8.0 0.00 0.00 0.00 46 1015.8
20260901193116 96 191 1.0 8.0 0.00 0.00 0.00 43 1016.0
20260901192547 96 10 2.0 12.0 0.00 0.00 0.00 46 1016.0
20260901192049 95 17 3.0 12.0 0.00 0.00 0.00 46 1016.0
20260901191558 95 138 3.0 10.0 0.00 0.00 0.00 45 1016.1
20260901191048 96 138 4.0 9.0 0.00 0.00 0.00 44 1016.1
20260901190549 94 227 3.0 9.0 0.00 0.00 0.00 46 1016.1
20260901190110 95 91 2.0 9.0 0.00 0.00 0.00 46 1016.2
20260901185550 95 43 2.0 9.0 0.00 0.00 0.00 46 1016.4
20260901185049 95 176 4.0 11.0 0.00 0.00 0.00 43 1016.4
20260901184603 95 5 4.0 11.0 0.00 0.00 0.00 46 1016.5
20260901184046 94 126 4.0 10.0 0.00 0.00 0.00 47 1016.6
20260901183547 94 155 3.0 8.0 0.00 0.00 0.00 48 1016.6
20260901183059 94 173 1.0 10.0 0.00 0.00 0.00 47 1016.7
20260901182550 94 92 2.0 10.0 0.00 0.00 0.00 46 1016.9
20260901182049 94 72 4.0 10.0 0.00 0.00 0.00 48 1017.0
20260901181601 94 210 4.0 11.0 0.00 0.00 0.00 46 1017.1
20260901181049 93 205 3.0 11.0 0.00 0.00 0.00 47 1017.1
20260901180547 93 159 3.0 10.0 0.00 0.00 0.00 48 1017.1
20260901180105 93 180 2.0 9.0 0.00 0.00 0.00 48 1017.2
20260901175548 93 188 4.0 10.0 0.00 0.00 0.00 49 1017.4
20260901175049 92 147 5.0 11.0 0.00 0.00 0.00 49 1017.6
20260901174602 92 136 5.0 11.0 0.00 0.00 0.00 47 1017.5
20260901174049 92 161 1.0 8.0 0.00 0.00 0.00 48 1017.7
20260901173546 92 65 1.0 8.0 0.00 0.00 0.00 47 1017.7
20260901173059 92 162 3.0 8.0 0.00 0.00 0.00 50 1017.8
20260901172546 92 58 2.0 8.0 0.00 0.00 0.00 50 1017.8
20260901172050 92 165 3.0 8.0 0.00 0.00 0.00 50 1017.9
20260901171557 92 0 3.0 8.0 0.00 0.00 0.00 50 1017.9
20260901171049 91 125 3.0 7.0 0.00 0.00 0.00 51 1017.9
20260901170550 91 190 2.0 10.0 0.00 0.00 0.00 52 1018.0
20260901170117 90 166 4.0 10.0 0.00 0.00 0.00 53 1018.0
20260901165546 91 136 3.0 8.0 0.00 0.00 0.00 53 1018.0
20260901165049 91 162 1.0 9.0 0.00 0.00 0.00 50 1018.1
20260901164608 91 38 2.0 9.0 0.00 0.00 0.00 52 1018.1
20260901164050 91 141 5.0 9.0 0.00 0.00 0.00 51 1018.1
20260901163546 90 92 3.0 9.0 0.00 0.00 0.00 51 1018.1
20260901163102 90 15 1.0 8.0 0.00 0.00 0.00 51 1018.2
20260901162548 90 123 3.0 8.0 0.00 0.00 0.00 53 1018.4
20260901162046 89 116 4.0 7.0 0.00 0.00 0.00 55 1018.4
20260901161606 88 0 2.0 5.0 0.00 0.00 0.00 57 1018.4
20260901161050 87 106 1.0 7.0 0.00 0.00 0.00 57 1018.4
20260901160549 88 154 3.0 7.0 0.00 0.00 0.00 56 1018.4
20260901160103 88 192 1.0 5.0 0.00 0.00 0.00 58 1018.3
20260901155546 88 158 0.0 5.0 0.00 0.00 0.00 56 1018.4
20260901155050 87 266 1.0 7.0 0.00 0.00 0.00 58 1018.3
20260901154618 87 184 3.0 7.0 0.00 0.00 0.00 58 1018.3
20260901154049 87 225 3.0 7.0 0.00 0.00 0.00 56 1018.4
20260901153551 86 196 1.0 5.0 0.00 0.00 0.00 62 1018.2
20260901153117 86 148 2.0 6.0 0.00 0.00 0.00 63 1018.3
20260901152546 86 38 2.0 6.0 0.00 0.00 0.00 65 1018.4
20260901152046 85 110 2.0 6.0 0.00 0.00 0.00 66 1018.4
20260901151602 85 237 2.0 8.0 0.00 0.00 0.00 67 1018.4
20260901151046 84 151 2.0 8.0 0.00 0.00 0.00 65 1018.4
20260901150549 84 248 1.0 5.0 0.00 0.00 0.00 69 1018.3
20260901150109 84 177 2.0 5.0 0.00 0.00 0.00 70 1018.3
20260901145549 84 179 2.0 6.0 0.00 0.00 0.00 69 1018.4
20260901145049 84 288 2.0 6.0 0.00 0.00 0.00 71 1018.3
20260901144557 83 190 2.0 6.0 0.00 0.00 0.00 71 1018.4
20260901144048 83 215 2.0 6.0 0.00 0.00 0.00 73 1018.3
20260901143548 82 142 2.0 6.0 0.00 0.00 0.00 75 1018.3
20260901143055 82 0 2.0 6.0 0.00 0.00 0.00 77 1018.3
20260901142546 81 187 2.0 5.0 0.00 0.00 0.00 79 1018.4
20260901142046 80 290 2.0 5.0 0.00 0.00 0.00 83 1018.4
20260901141603 79 0 2.0 4.0 0.00 0.00 0.00 86 1018.4
20260901141049 79 0 1.0 4.0 0.00 0.00 0.00 88 1018.4
20260901140548 78 264 1.0 6.0 0.00 0.00 0.00 90 1018.5
20260901140109 78 186 1.0 6.0 0.00 0.00 0.00 91 1018.4
20260901135549 77 255 1.0 4.0 0.00 0.00 0.00 92 1018.4
20260901135046 77 300 1.0 4.0 0.00 0.00 0.00 92 1018.4
20260901134557 76 206 0.0 4.0 0.00 0.00 0.00 93 1018.4
20260901134049 76 224 0.0 4.0 0.00 0.00 0.00 93 1018.3
20260901133549 75 211 1.0 3.0 0.00 0.00 0.00 93 1018.3
20260901133105 75 213 0.0 2.0 0.00 0.00 0.00 93 1018.3
20260901132548 74 0 0.0 2.0 0.00 0.00 0.00 92 1018.2
20260901132048 73 0 0.0 1.0 0.00 0.00 0.00 92 1018.1
20260901131553 73 0 0.0 0.0 0.00 0.00 0.00 91 1018.1
20260901131049 72 0 0.0 0.0 0.00 0.00 0.00 91 1018.0
20260901130546 72 0 0.0 0.0 0.00 0.00 0.00 90 1017.9
20260901130058 72 0 0.0 0.0 0.00 0.00 0.00 90 1018.0
20260901125547 72 0 0.0 0.0 0.00 0.00 0.00 90 1017.9
20260901125049 72 0 0.0 0.0 0.00 0.00 0.00 90 1017.9
20260901124604 72 0 0.0 0.0 0.00 0.00 0.00 90 1017.8
20260901124046 72 0 0.0 0.0 0.00 0.00 0.00 90 1017.7
20260901123549 72 0 0.0 0.0 0.00 0.00 0.00 90 1017.6
20260901123055 72 0 0.0 0.0 0.00 0.00 0.00 90 1017.7
20260901122549 72 0 0.0 0.0 0.00 0.00 0.00 90 1017.6
20260901122046 73 0 0.0 0.0 0.00 0.00 0.00 90 1017.6
20260901121607 73 0 0.0 0.0 0.00 0.00 0.00 90 1017.6
20260901121046 73 0 0.0 0.0 0.00 0.00 0.00 90 1017.6
20260901120550 73 0 0.0 0.0 0.00 0.00 0.00 90 1017.6
20260901120121 73 0 0.0 0.0 0.00 0.00 0.00 90 1017.6
20260901115550 73 0 0.0 0.0 0.00 0.00 0.00 90 1017.7
20260901115049 73 0 0.0 0.0 0.00 0.00 0.00 90 1017.6
20260901114557 74 0 0.0 0.0 0.00 0.00 0.00 90 1017.7
20260901114049 74 0 0.0 0.0 0.00 0.00 0.00 90 1017.6
20260901113549 74 0 0.0 0.0 0.00 0.00 0.00 90 1017.6
20260901113118 73 0 0.0 0.0 0.00 0.00 0.00 90 1017.5
20260901112549 73 0 0.0 0.0 0.00 0.00 0.00 90 1017.4
20260901112046 73 0 0.0 0.0 0.00 0.00 0.00 89 1017.3
20260901111603 73 0 0.0 0.0 0.00 0.00 0.00 89 1017.2
20260901111049 73 0 0.0 1.0 0.00 0.00 0.00 89 1017.4
20260901110550 73 0 0.0 2.0 0.00 0.00 0.00 88 1017.2
20260901105549 73 213 1.0 2.0 0.00 0.00 0.00 87 1017.3
20260901105049 73 213 0.0 2.0 0.00 0.00 0.00 86 1017.5
20260901104602 73 0 0.0 0.0 0.00 0.00 0.00 86 1017.4
20260901104047 73 0 0.0 0.0 0.00 0.00 0.00 85 1017.5
20260901103546 73 0 0.0 0.0 0.00 0.00 0.00 85 1017.5
20260901103104 74 0 0.0 0.0 0.00 0.00 0.00 85 1017.4
20260901102546 74 0 0.0 0.0 0.00 0.00 0.00 85 1017.5
20260901102049 74 0 0.0 0.0 0.00 0.00 0.00 84 1017.5
20260901101550 74 0 0.0 0.0 0.00 0.00 0.00 84 1017.4
20260901101047 74 0 0.0 0.0 0.00 0.00 0.00 84 1017.5
20260901100548 74 0 0.0 0.0 0.00 0.00 0.00 84 1017.4
20260901095549 75 0 0.0 0.0 0.00 0.00 0.00 84 1017.5
20260901095049 75 0 0.0 0.0 0.00 0.00 0.00 84 1017.6
20260901094557 75 0 0.0 0.0 0.00 0.00 0.00 84 1017.5
20260901094051 75 0 0.0 0.0 0.00 0.00 0.00 84 1017.5
20260901093547 75 0 0.0 0.0 0.00 0.00 0.00 84 1017.5
20260901093059 75 0 0.0 0.0 0.00 0.00 0.00 84 1017.5
20260901092546 75 0 0.0 1.0 0.00 0.00 0.00 84 1017.7
20260901092048 75 0 0.0 1.0 0.00 0.00 0.00 84 1017.5
20260901091606 75 0 0.0 1.0 0.00 0.00 0.00 84 1017.5
20260901091047 75 0 0.0 2.0 0.00 0.00 0.00 84 1017.4